Stündliche Wetter Juma

Heute, 6 März, Samstag

Zeit Temperatur Niederschläge Wind Luftdruck Luftfeuchtigkeit
00:00 +8°C° 0 mm 3 m/S 706 mmHg 57%
01:00 +8°C° 0 mm 3 m/S 705 mmHg 56%
02:00 +7°C° 0 mm 4 m/S 704 mmHg 54%
03:00 +7°C° 0 mm 4 m/S 704 mmHg 53%
04:00 +7°C° 0 mm 4 m/S 703 mmHg 51%
05:00 +8°C° 0 mm 4 m/S 703 mmHg 50%
06:00 +9°C° 0 mm 3 m/S 703 mmHg 48%
07:00 +10°C° 0 mm 2 m/S 703 mmHg 47%
08:00 +10°C° 0.3 mm 2 m/S 703 mmHg 54%
09:00 +10°C° 0.3 mm 3 m/S 703 mmHg 61%
10:00 +10°C° 0.3 mm 3 m/S 704 mmHg 68%
11:00 +10°C° 1.4 mm 3 m/S 703 mmHg 72%
12:00 +10°C° 1.4 mm 4 m/S 703 mmHg 76%
13:00 +8°C° 1.4 mm 4 m/S 703 mmHg 80%
14:00 +8°C° 1 mm 4 m/S 703 mmHg 83%
15:00 +8°C° 1 mm 4 m/S 703 mmHg 85%
16:00 +7°C° 1 mm 4 m/S 704 mmHg 87%
17:00 +7°C° 1.8 mm 5 m/S 704 mmHg 88%
18:00 +7°C° 1.8 mm 6 m/S 705 mmHg 89%
19:00 +5°C° 1.8 mm 7 m/S 706 mmHg 91%
20:00 +5°C° 0.3 mm 7 m/S 706 mmHg 90%
21:00 +4°C° 0.3 mm 7 m/S 707 mmHg 89%
22:00 +2°C° 0.3 mm 8 m/S 707 mmHg 89%
23:00 +2°C° 0.2 mm 8 m/S 707 mmHg 90%

Morgen, 7 März, Sonntag

Zeit Temperatur Niederschläge Wind Luftdruck Luftfeuchtigkeit
00:00 +2°C° 0.2 mm 7 m/S 707 mmHg 91%
01:00 +2°C° 0.2 mm 7 m/S 707 mmHg 92%
02:00 +2°C° 0.1 mm 6 m/S 707 mmHg 91%
03:00 +2°C° 0.1 mm 6 m/S 708 mmHg 91%
04:00 +2°C° 0.1 mm 5 m/S 708 mmHg 91%
05:00 +2°C° 0.1 mm 5 m/S 708 mmHg 91%
06:00 +3°C° 0.1 mm 4 m/S 708 mmHg 91%
07:00 +3°C° 0.1 mm 3 m/S 708 mmHg 91%
08:00 +3°C° 0 mm 3 m/S 709 mmHg 86%
09:00 +4°C° 0 mm 3 m/S 709 mmHg 82%
10:00 +5°C° 0 mm 4 m/S 709 mmHg 77%
11:00 +7°C° 0 mm 3 m/S 708 mmHg 72%
12:00 +7°C° 0 mm 3 m/S 708 mmHg 68%
13:00 +8°C° 0 mm 3 m/S 708 mmHg 63%
14:00 +8°C° 0 mm 3 m/S 707 mmHg 62%
15:00 +9°C° 0 mm 3 m/S 707 mmHg 62%
16:00 +9°C° 0 mm 2 m/S 707 mmHg 61%
17:00 +8°C° 0 mm 2 m/S 707 mmHg 65%
18:00 +7°C° 0 mm 2 m/S 707 mmHg 70%
19:00 +7°C° 0 mm 2 m/S 707 mmHg 74%
20:00 +6°C° 0 mm 2 m/S 707 mmHg 75%
21:00 +6°C° 0 mm 2 m/S 706 mmHg 76%
22:00 +6°C° 0 mm 2 m/S 706 mmHg 77%
23:00 +6°C° 0 mm 1 m/S 706 mmHg 78%

übermorgen, 8 März, Montag

Zeit Temperatur Niederschläge Wind Luftdruck Luftfeuchtigkeit
00:00 +6°C° 0 mm 1 m/S 706 mmHg 79%
01:00 +6°C° 0 mm 1 m/S 706 mmHg 80%
02:00 +6°C° 0 mm 1 m/S 707 mmHg 79%
03:00 +6°C° 0 mm 1 m/S 707 mmHg 78%
04:00 +6°C° 0 mm 1 m/S 707 mmHg 77%
05:00 +7°C° 0 mm 1 m/S 707 mmHg 75%
06:00 +7°C° 0 mm 1 m/S 708 mmHg 73%
07:00 +8°C° 0 mm 1 m/S 708 mmHg 71%
08:00 +9°C° 0 mm 1 m/S 708 mmHg 65%
09:00 +11°C° 0 mm 1 m/S 709 mmHg 58%
10:00 +12°C° 0 mm 1 m/S 709 mmHg 52%
11:00 +13°C° 0 mm 1 m/S 709 mmHg 50%
12:00 +14°C° 0 mm 1 m/S 709 mmHg 48%
13:00 +15°C° 0 mm 1 m/S 708 mmHg 46%
14:00 +15°C° 0 mm 1 m/S 708 mmHg 46%
15:00 +15°C° 0 mm 1 m/S 708 mmHg 46%
16:00 +15°C° 0 mm 1 m/S 708 mmHg 46%
17:00 +14°C° 0 mm 1 m/S 708 mmHg 51%
18:00 +13°C° 0 mm 2 m/S 708 mmHg 56%
19:00 +12°C° 0 mm 2 m/S 708 mmHg 61%
20:00 +10°C° 0 mm 2 m/S 708 mmHg 62%
21:00 +10°C° 0 mm 2 m/S 708 mmHg 62%
22:00 +10°C° 0 mm 2 m/S 708 mmHg 62%
23:00 +9°C° 0 mm 2 m/S 707 mmHg 63%

9 März, Dienstag

Zeit Temperatur Niederschläge Wind Luftdruck Luftfeuchtigkeit
00:00 +9°C° 0 mm 2 m/S 707 mmHg 63%
01:00 +9°C° 0 mm 3 m/S 706 mmHg 64%
02:00 +9°C° 0 mm 2 m/S 706 mmHg 63%
03:00 +9°C° 0 mm 2 m/S 705 mmHg 62%
04:00 +9°C° 0 mm 2 m/S 705 mmHg 61%
05:00 +9°C° 0 mm 2 m/S 704 mmHg 59%
06:00 +10°C° 0 mm 3 m/S 704 mmHg 56%
07:00 +10°C° 0 mm 3 m/S 704 mmHg 54%
08:00 +12°C° 0 mm 3 m/S 704 mmHg 48%
09:00 +14°C° 0 mm 3 m/S 704 mmHg 42%
10:00 +17°C° 0 mm 3 m/S 704 mmHg 36%
11:00 +18°C° 0 mm 2 m/S 703 mmHg 32%
12:00 +19°C° 0 mm 2 m/S 703 mmHg 29%
13:00 +21°C° 0 mm 2 m/S 702 mmHg 25%
14:00 +20°C° 0 mm 2 m/S 702 mmHg 29%
15:00 +19°C° 0 mm 2 m/S 702 mmHg 32%
16:00 +20°C° 0 mm 1 m/S 702 mmHg 36%
17:00 +19°C° 0 mm 1 m/S 702 mmHg 39%
18:00 +17°C° 0 mm 2 m/S 702 mmHg 42%
19:00 +15°C° 0 mm 2 m/S 701 mmHg 45%
20:00 +14°C° 0 mm 3 m/S 702 mmHg 45%
21:00 +14°C° 0 mm 3 m/S 702 mmHg 45%
22:00 +14°C° 0 mm 4 m/S 702 mmHg 45%
23:00 +14°C° 0 mm 4 m/S 702 mmHg 48%

10 März, Mittwoch

Zeit Temperatur Niederschläge Wind Luftdruck Luftfeuchtigkeit
00:00 +13°C° 0 mm 4 m/S 701 mmHg 51%
01:00 +12°C° 0 mm 3 m/S 701 mmHg 54%
02:00 +12°C° 0.2 mm 4 m/S 702 mmHg 58%
03:00 +11°C° 0.2 mm 4 m/S 702 mmHg 62%
04:00 +10°C° 0.2 mm 5 m/S 702 mmHg 66%
05:00 +9°C° 0.1 mm 5 m/S 703 mmHg 67%
06:00 +9°C° 0.1 mm 5 m/S 704 mmHg 68%
07:00 +9°C° 0.1 mm 5 m/S 705 mmHg 70%
08:00 +9°C° 0.3 mm 5 m/S 705 mmHg 71%
09:00 +8°C° 0.3 mm 6 m/S 706 mmHg 73%
10:00 +8°C° 0.3 mm 7 m/S 706 mmHg 75%
11:00 +7°C° 0.7 mm 6 m/S 707 mmHg 76%
12:00 +7°C° 0.7 mm 6 m/S 707 mmHg 77%
13:00 +7°C° 0.7 mm 5 m/S 707 mmHg 77%
14:00 +7°C° 0 mm 5 m/S 708 mmHg 72%
15:00 +8°C° 0 mm 5 m/S 708 mmHg 66%
16:00 +9°C° 0 mm 5 m/S 708 mmHg 61%
17:00 +8°C° 0 mm 4 m/S 709 mmHg 64%
18:00 +8°C° 0 mm 3 m/S 709 mmHg 67%
19:00 +7°C° 0 mm 2 m/S 709 mmHg 70%
20:00 +7°C° 0 mm 2 m/S 709 mmHg 69%
21:00 +7°C° 0 mm 1 m/S 709 mmHg 68%
22:00 +7°C° 0 mm 1 m/S 709 mmHg 68%
23:00 +7°C° 0 mm 1 m/S 709 mmHg 68%

11 März, Donnerstag

Zeit Temperatur Niederschläge Wind Luftdruck Luftfeuchtigkeit
00:00 +6°C° 0 mm 2 m/S 708 mmHg 69%
01:00 +5°C° 0 mm 2 m/S 708 mmHg 70%
02:00 +5°C° 0 mm 2 m/S 708 mmHg 71%
03:00 +5°C° 0 mm 2 m/S 707 mmHg 72%
04:00 +5°C° 0 mm 2 m/S 707 mmHg 73%
05:00 +5°C° 0 mm 2 m/S 707 mmHg 72%
06:00 +6°C° 0 mm 2 m/S 707 mmHg 70%
07:00 +6°C° 0 mm 2 m/S 707 mmHg 68%
08:00 +7°C° 0 mm 2 m/S 707 mmHg 60%
09:00 +10°C° 0 mm 1 m/S 707 mmHg 52%
10:00 +12°C° 0 mm 1 m/S 707 mmHg 44%
11:00 +13°C° 0 mm 1 m/S 707 mmHg 39%
12:00 +14°C° 0 mm 2 m/S 706 mmHg 34%
13:00 +15°C° 0 mm 2 m/S 706 mmHg 29%
14:00 +15°C° 0 mm 2 m/S 706 mmHg 29%
15:00 +16°C° 0 mm 2 m/S 706 mmHg 28%
16:00 +16°C° 0 mm 2 m/S 705 mmHg 27%
17:00 +15°C° 0 mm 2 m/S 705 mmHg 32%
18:00 +12°C° 0 mm 3 m/S 705 mmHg 36%
19:00 +11°C° 0 mm 3 m/S 705 mmHg 41%
20:00 +11°C° 0 mm 3 m/S 705 mmHg 45%
21:00 +10°C° 0 mm 2 m/S 704 mmHg 48%
22:00 +10°C° 0 mm 2 m/S 704 mmHg 52%
23:00 +9°C° 0 mm 3 m/S 703 mmHg 53%
Mehr zeigen

Wir brauchen deine Erlaubnis

Meteoprog und unser Service Anbieter werden persönliche Daten aufbewahren, so wie Cookies, Geräte Bezeichnung oder ähnliche Technologien von deinem Gerät und Prozess, so wie Persönliche Daten Inhalte und Werbungen, genauso wie social Media und den Verkehr zu analysieren.

  • Aufbewahrung und/oder Zugang zu deiner Geräte Informationen.

    Cookies, Geräte Bezeichnung oder andere Informationen, können aufbewahrt oder Zugang zu deinem Gerät erhalten, für den Grund, der oben angegeben wird.

  • Personalisierte Werbung und Inhalte, Messungen, Einblick in das Publikum und Produkt Entwicklung.

    Werbungen und Inhalte können personalisiert werden, basierend auf ein Profil. Mehr Daten können besser personalisierte Werbungen und Inhalte hinzufügen. Werbung und Inhalte können gezeigt und gemessen werden. Einblicke über das Publikum, welche die Werbung gesehen haben und den Inhalt, können abgeleitet werden. So wie Daten können genutzt werden, um es zu verbessern oder die Benutzer Erfahrung zu verbessern das System und die Software.

Wenn du “Ich stimme zu” klickst, erlaubst du uns, die Cookies zu benutzen die Geräte Bezeichnung, den Web oder ähnliche Technologien zu benutzen. Deine Settings, können in deinem Gerät bei deinem Browser geändert werden.

Für den bestimmten Zweck, berechtigten Interessen beruhen darauf, mehr als auf den Inhalt. Du kannst mehr darüber in unseren Privaten und Cookie Politik lesen.